Time,TemperatureF,DewpointF,PressureIn,WindDirection,WindDirectionDegrees,WindSpeedMPH,WindSpeedGustMPH,Humidity,HourlyPrecipIn,Conditions,Clouds,dailyrainin,SolarRadiationWatts/m^2,SoftwareType,DateUTC
2013-08-19 00:13:00,62.6,61.0,30.09,SSE,162,0.0,-999.0,94,-99.99,,,0.00,0,weatherlink.com 1.10,2013-08-19 04:13:00,
2013-08-19 00:28:00,62.1,60.0,30.09,SSE,162,0.0,-999.0,94,-99.99,,,0.00,0,weatherlink.com 1.10,2013-08-19 04:28:00,
2013-08-19 00:43:00,62.0,61.0,30.09,SSE,162,0.0,-999.0,95,-99.99,,,0.00,0,weatherlink.com 1.10,2013-08-19 04:43:00,
2013-08-19 00:58:00,61.6,60.0,30.09,SSE,162,0.0,-999.0,95,-99.99,,,0.00,0,weatherlink.com 1.10,2013-08-19 04:58:00,
2013-08-19 01:13:00,61.4,60.0,30.09,SSE,162,0.0,-999.0,95,-99.99,,,0.00,0,weatherlink.com 1.10,2013-08-19 05:13:00,
2013-08-19 01:28:00,61.3,60.0,30.09,SSE,162,0.0,-999.0,95,-99.99,,,0.00,0,weatherlink.com 1.10,2013-08-19 05:28:00,
2013-08-19 01:43:00,60.9,60.0,30.08,SSE,162,0.0,-999.0,96,-99.99,,,0.00,0,weatherlink.com 1.10,2013-08-19 05:43:00,
2013-08-19 01:58:00,61.0,60.0,30.08,SSE,162,0.0,-999.0,96,-99.99,,,0.00,0,weatherlink.com 1.10,2013-08-19 05:58:00,
2013-08-19 02:13:00,60.6,60.0,30.08,SSE,162,0.0,-999.0,96,-99.99,,,0.00,0,weatherlink.com 1.10,2013-08-19 06:13:00,
2013-08-19 02:28:00,60.5,59.0,30.08,SSE,162,0.0,-999.0,96,-99.99,,,0.00,0,weatherlink.com 1.10,2013-08-19 06:28:00,
2013-08-19 02:43:00,60.2,59.0,30.07,SSE,162,0.0,-999.0,96,-99.99,,,0.00,0,weatherlink.com 1.10,2013-08-19 06:43:00,
2013-08-19 02:58:00,59.8,59.0,30.07,SSE,162,0.0,-999.0,96,-99.99,,,0.00,0,weatherlink.com 1.10,2013-08-19 06:58:00,
2013-08-19 03:13:00,59.7,59.0,30.07,SSE,162,0.0,-999.0,96,-99.99,,,0.00,0,weatherlink.com 1.10,2013-08-19 07:13:00,
2013-08-19 03:28:00,59.4,58.0,30.07,SSE,162,0.0,-999.0,96,-99.99,,,0.00,0,weatherlink.com 1.10,2013-08-19 07:28:00,
2013-08-19 03:43:00,59.1,58.0,30.07,SSE,162,0.0,-999.0,96,-99.99,,,0.00,0,weatherlink.com 1.10,2013-08-19 07:43:00,
2013-08-19 03:58:00,58.9,58.0,30.07,SSE,162,0.0,-999.0,96,-99.99,,,0.00,0,weatherlink.com 1.10,2013-08-19 07:58:00,
2013-08-19 04:13:00,58.6,58.0,30.07,SSE,162,0.0,-999.0,97,-99.99,,,0.00,0,weatherlink.com 1.10,2013-08-19 08:13:00,
2013-08-19 04:27:00,58.4,58.0,30.08,SSE,162,0.0,-999.0,97,-99.99,,,0.00,0,weatherlink.com 1.10,2013-08-19 08:27:00,
2013-08-19 04:43:00,58.3,58.0,30.08,SSE,162,0.0,-999.0,97,-99.99,,,0.00,0,weatherlink.com 1.10,2013-08-19 08:43:00,
2013-08-19 04:58:00,58.5,58.0,30.08,SSE,162,0.0,-999.0,97,-99.99,,,0.00,0,weatherlink.com 1.10,2013-08-19 08:58:00,
2013-08-19 05:13:00,58.3,58.0,30.08,SSE,162,0.0,-999.0,97,-99.99,,,0.00,0,weatherlink.com 1.10,2013-08-19 09:13:00,
2013-08-19 05:28:00,58.1,57.0,30.07,SSE,162,0.0,-999.0,97,-99.99,,,0.00,0,weatherlink.com 1.10,2013-08-19 09:28:00,
2013-08-19 05:43:00,57.6,57.0,30.08,SSE,162,0.0,-999.0,97,-99.99,,,0.00,0,weatherlink.com 1.10,2013-08-19 09:43:00,
2013-08-19 05:58:00,56.9,56.0,30.08,SSE,162,0.0,-999.0,97,-99.99,,,0.00,0,weatherlink.com 1.10,2013-08-19 09:58:00,
2013-08-19 06:13:00,57.3,57.0,30.08,SSE,162,0.0,-999.0,97,-99.99,,,0.00,0,weatherlink.com 1.10,2013-08-19 10:13:00,
2013-08-19 06:28:00,57.3,57.0,30.09,SSE,162,0.0,-999.0,97,-99.99,,,0.00,0,weatherlink.com 1.10,2013-08-19 10:28:00,
2013-08-19 06:43:00,57.3,57.0,30.09,SSE,162,0.0,-999.0,97,-99.99,,,0.00,0,weatherlink.com 1.10,2013-08-19 10:43:00,
2013-08-19 06:58:00,57.1,56.0,30.09,SSE,162,0.0,-999.0,97,-99.99,,,0.00,0,weatherlink.com 1.10,2013-08-19 10:58:00,
2013-08-19 07:13:00,56.8,56.0,30.09,SSE,162,0.0,-999.0,97,-99.99,,,0.00,11,weatherlink.com 1.10,2013-08-19 11:13:00,
2013-08-19 07:28:00,56.6,56.0,30.09,SSE,162,0.0,-999.0,97,-99.99,,,0.00,23,weatherlink.com 1.10,2013-08-19 11:28:00,
2013-08-19 07:43:00,57.2,57.0,30.09,SSE,162,0.0,-999.0,98,-99.99,,,0.00,56,weatherlink.com 1.10,2013-08-19 11:43:00,
2013-08-19 07:58:00,58.0,58.0,30.09,SSE,162,0.0,-999.0,98,-99.99,,,0.00,90,weatherlink.com 1.10,2013-08-19 11:58:00,
2013-08-19 08:13:00,59.3,59.0,30.09,SSE,162,0.0,-999.0,98,-99.99,,,0.00,125,weatherlink.com 1.10,2013-08-19 12:13:00,
2013-08-19 08:28:00,60.7,60.0,30.09,SSE,162,0.0,-999.0,98,-99.99,,,0.00,165,weatherlink.com 1.10,2013-08-19 12:28:00,
2013-08-19 08:43:00,61.8,61.0,30.09,SSE,162,0.0,-999.0,98,-99.99,,,0.00,193,weatherlink.com 1.10,2013-08-19 12:43:00,
2013-08-19 08:58:00,62.6,62.0,30.10,SSE,162,0.0,-999.0,98,-99.99,,,0.00,236,weatherlink.com 1.10,2013-08-19 12:58:00,
2013-08-19 09:13:00,63.8,63.0,30.10,SSE,162,0.0,-999.0,97,-99.99,,,0.00,283,weatherlink.com 1.10,2013-08-19 13:13:00,
2013-08-19 09:28:00,65.8,65.0,30.10,SSE,162,0.0,-999.0,97,-99.99,,,0.00,332,weatherlink.com 1.10,2013-08-19 13:28:00,
2013-08-19 09:43:00,67.9,66.0,30.10,SSE,162,0.0,-999.0,92,-99.99,,,0.00,374,weatherlink.com 1.10,2013-08-19 13:43:00,
2013-08-19 09:58:00,70.2,66.0,30.10,South,173,0.0,-999.0,85,-99.99,,,0.00,411,weatherlink.com 1.10,2013-08-19 13:58:00,
2013-08-19 10:13:00,71.5,66.0,30.10,SSW,193,0.0,-999.0,83,-99.99,,,0.00,457,weatherlink.com 1.10,2013-08-19 14:13:00,
2013-08-19 10:28:00,72.5,66.0,30.09,South,189,2.0,-999.0,79,-99.99,,,0.00,503,weatherlink.com 1.10,2013-08-19 14:28:00,
2013-08-19 10:43:00,74.0,66.0,30.09,SSW,213,4.0,-999.0,77,-99.99,,,0.00,538,weatherlink.com 1.10,2013-08-19 14:43:00,
2013-08-19 10:58:00,74.9,67.0,30.09,SSW,212,4.0,-999.0,75,-99.99,,,0.00,582,weatherlink.com 1.10,2013-08-19 14:58:00,
2013-08-19 11:13:00,75.8,67.0,30.09,SW,220,3.0,-999.0,75,-99.99,,,0.00,608,weatherlink.com 1.10,2013-08-19 15:13:00,
2013-08-19 11:28:00,76.7,67.0,30.09,SSW,206,7.0,-999.0,72,-99.99,,,0.00,652,weatherlink.com 1.10,2013-08-19 15:28:00,
2013-08-19 11:43:00,77.9,67.0,30.09,SSW,195,1.0,-999.0,70,-99.99,,,0.00,677,weatherlink.com 1.10,2013-08-19 15:43:00,
2013-08-19 11:57:00,78.3,67.0,30.08,SSW,206,3.0,-999.0,69,-99.99,,,0.00,605,weatherlink.com 1.10,2013-08-19 15:57:00,
2013-08-19 12:12:00,78.7,66.0,30.08,WSW,244,3.0,-999.0,65,-99.99,,,0.00,738,weatherlink.com 1.10,2013-08-19 16:12:00,
2013-08-19 12:27:00,78.9,66.0,30.08,WSW,249,3.0,-999.0,64,-99.99,,,0.00,858,weatherlink.com 1.10,2013-08-19 16:27:00,
2013-08-19 12:42:00,79.3,67.0,30.08,SSW,213,3.0,-999.0,66,-99.99,,,0.00,893,weatherlink.com 1.10,2013-08-19 16:42:00,
2013-08-19 12:57:00,79.6,67.0,30.08,SW,222,3.0,-999.0,65,-99.99,,,0.00,918,weatherlink.com 1.10,2013-08-19 16:57:00,
2013-08-19 13:12:00,79.9,66.0,30.08,SW,221,4.0,-999.0,62,-99.99,,,0.00,882,weatherlink.com 1.10,2013-08-19 17:12:00,
2013-08-19 13:27:00,79.9,66.0,30.07,SW,222,4.0,-999.0,63,-99.99,,,0.00,294,weatherlink.com 1.10,2013-08-19 17:27:00,
2013-08-19 13:42:00,81.1,67.0,30.07,South,187,5.0,-999.0,62,-99.99,,,0.00,912,weatherlink.com 1.10,2013-08-19 17:42:00,
2013-08-19 13:57:00,81.2,64.0,30.07,WNW,287,0.0,-999.0,56,-99.99,,,0.00,258,weatherlink.com 1.10,2013-08-19 17:57:00,
2013-08-19 14:12:00,79.6,65.0,30.07,WNW,299,3.0,-999.0,61,-99.99,,,0.00,193,weatherlink.com 1.10,2013-08-19 18:12:00,
2013-08-19 14:27:00,79.6,65.0,30.07,NNE,27,4.0,-999.0,62,-99.99,,,0.00,274,weatherlink.com 1.10,2013-08-19 18:27:00,
2013-08-19 14:42:00,80.4,67.0,30.06,West,280,2.0,-999.0,63,-99.99,,,0.00,846,weatherlink.com 1.10,2013-08-19 18:42:00,
2013-08-19 14:57:00,80.2,64.0,30.06,NW,305,4.0,-999.0,59,-99.99,,,0.00,311,weatherlink.com 1.10,2013-08-19 18:57:00,
2013-08-19 15:12:00,81.4,66.0,30.06,WSW,243,2.0,-999.0,60,-99.99,,,0.00,821,weatherlink.com 1.10,2013-08-19 19:12:00,
2013-08-19 15:27:00,81.8,65.0,30.06,WNW,288,4.0,-999.0,56,-99.99,,,0.00,552,weatherlink.com 1.10,2013-08-19 19:27:00,
2013-08-19 15:42:00,82.3,63.0,30.05,WSW,250,5.0,-999.0,53,-99.99,,,0.00,751,weatherlink.com 1.10,2013-08-19 19:42:00,
2013-08-19 15:57:00,81.9,65.0,30.05,NW,305,3.0,-999.0,56,-99.99,,,0.00,751,weatherlink.com 1.10,2013-08-19 19:57:00,
2013-08-19 16:12:00,82.0,66.0,30.05,SSW,213,7.0,-999.0,58,-99.99,,,0.00,708,weatherlink.com 1.10,2013-08-19 20:12:00,
2013-08-19 16:27:00,82.5,65.0,30.05,West,280,3.0,-999.0,56,-99.99,,,0.00,696,weatherlink.com 1.10,2013-08-19 20:27:00,
2013-08-19 16:42:00,81.7,64.0,30.05,West,272,2.0,-999.0,55,-99.99,,,0.00,167,weatherlink.com 1.10,2013-08-19 20:42:00,
2013-08-19 16:57:00,82.3,65.0,30.04,WNW,295,3.0,-999.0,56,-99.99,,,0.00,628,weatherlink.com 1.10,2013-08-19 20:57:00,
2013-08-19 17:12:00,83.4,65.0,30.04,West,265,2.0,-999.0,54,-99.99,,,0.00,626,weatherlink.com 1.10,2013-08-19 21:12:00,
2013-08-19 17:27:00,82.0,64.0,30.04,West,273,1.0,-999.0,55,-99.99,,,0.00,148,weatherlink.com 1.10,2013-08-19 21:27:00,
2013-08-19 17:42:00,82.5,64.0,30.04,WSW,254,4.0,-999.0,54,-99.99,,,0.00,473,weatherlink.com 1.10,2013-08-19 21:42:00,
2013-08-19 17:57:00,83.4,66.0,30.03,West,261,2.0,-999.0,56,-99.99,,,0.00,413,weatherlink.com 1.10,2013-08-19 21:57:00,
2013-08-19 18:12:00,82.3,66.0,30.04,SSW,204,4.0,-999.0,59,-99.99,,,0.00,357,weatherlink.com 1.10,2013-08-19 22:12:00,
2013-08-19 18:27:00,82.5,67.0,30.03,West,259,4.0,-999.0,59,-99.99,,,0.00,315,weatherlink.com 1.10,2013-08-19 22:27:00,
2013-08-19 18:42:00,82.3,66.0,30.03,WNW,299,1.0,-999.0,58,-99.99,,,0.00,265,weatherlink.com 1.10,2013-08-19 22:42:00,
2013-08-19 18:57:00,81.9,66.0,30.02,WSW,251,2.0,-999.0,59,-99.99,,,0.00,206,weatherlink.com 1.10,2013-08-19 22:57:00,
2013-08-19 19:12:00,81.9,67.0,30.02,WSW,251,0.0,-999.0,60,-99.99,,,0.00,151,weatherlink.com 1.10,2013-08-19 23:12:00,
2013-08-19 19:27:00,81.1,67.0,30.02,WSW,251,1.0,-999.0,63,-99.99,,,0.00,109,weatherlink.com 1.10,2013-08-19 23:27:00,
2013-08-19 19:42:00,80.2,67.0,30.02,WSW,251,0.0,-999.0,64,-99.99,,,0.00,72,weatherlink.com 1.10,2013-08-19 23:42:00,
2013-08-19 19:57:00,79.9,68.0,30.02,WSW,251,0.0,-999.0,67,-99.99,,,0.00,39,weatherlink.com 1.10,2013-08-19 23:57:00,
2013-08-19 20:12:00,78.2,68.0,30.02,WSW,251,0.0,-999.0,71,-99.99,,,0.00,23,weatherlink.com 1.10,2013-08-20 00:12:00,
2013-08-19 20:27:00,76.0,68.0,30.02,WSW,251,0.0,-999.0,75,-99.99,,,0.00,9,weatherlink.com 1.10,2013-08-20 00:27:00,
2013-08-19 20:42:00,74.4,67.0,30.02,WSW,251,0.0,-999.0,78,-99.99,,,0.00,0,weatherlink.com 1.10,2013-08-20 00:42:00,
2013-08-19 20:57:00,73.0,67.0,30.02,WSW,251,0.0,-999.0,81,-99.99,,,0.00,0,weatherlink.com 1.10,2013-08-20 00:57:00,
2013-08-19 21:12:00,71.8,66.0,30.02,WSW,251,0.0,-999.0,82,-99.99,,,0.00,0,weatherlink.com 1.10,2013-08-20 01:12:00,
2013-08-19 21:27:00,70.4,66.0,30.03,WSW,251,0.0,-999.0,86,-99.99,,,0.00,0,weatherlink.com 1.10,2013-08-20 01:27:00,
2013-08-19 21:42:00,69.7,66.0,30.03,WSW,251,0.0,-999.0,88,-99.99,,,0.00,0,weatherlink.com 1.10,2013-08-20 01:42:00,
2013-08-19 21:57:00,68.5,65.0,30.04,WSW,251,0.0,-999.0,89,-99.99,,,0.00,0,weatherlink.com 1.10,2013-08-20 01:57:00,
2013-08-19 22:12:00,67.8,65.0,30.04,WSW,251,0.0,-999.0,89,-99.99,,,0.00,0,weatherlink.com 1.10,2013-08-20 02:12:00,
2013-08-19 22:27:00,67.4,65.0,30.04,WSW,251,0.0,-999.0,90,-99.99,,,0.00,0,weatherlink.com 1.10,2013-08-20 02:27:00,
2013-08-19 22:42:00,67.0,65.0,30.04,WSW,251,0.0,-999.0,92,-99.99,,,0.00,0,weatherlink.com 1.10,2013-08-20 02:42:00,
2013-08-19 22:57:00,66.5,65.0,30.04,WSW,251,0.0,-999.0,93,-99.99,,,0.00,0,weatherlink.com 1.10,2013-08-20 02:57:00,
2013-08-19 23:12:00,65.7,64.0,30.05,WSW,251,0.0,-999.0,93,-99.99,,,0.00,0,weatherlink.com 1.10,2013-08-20 03:12:00,
2013-08-19 23:27:00,65.3,64.0,30.05,WSW,251,0.0,-999.0,94,-99.99,,,0.00,0,weatherlink.com 1.10,2013-08-20 03:27:00,
2013-08-19 23:42:00,65.1,63.0,30.05,WSW,251,0.0,-999.0,94,-99.99,,,0.00,0,weatherlink.com 1.10,2013-08-20 03:42:00,
2013-08-19 23:57:00,64.7,63.0,30.05,WSW,251,0.0,-999.0,94,-99.99,,,0.00,0,weatherlink.com 1.10,2013-08-20 03:57:00,